Date String (YYYY-MM-DD hh:mm:ss) UTC,Instrument flags,Ambient pressure (hPa),Sample flow (lpm),Bypass flow (lpm),Sample temperature (°C),Ambient temperature (°C),ASC tube jacket temperature (°C),LED temperature (°C),Box temperature (°C),Sample RH (%),Span deviation,Mass concentration (μg/m³),Mass concentration (μg/m³),Mass concentration (μg/m³)
DateTimeUTC,F1_M11,P_M11,Q1_M11,Q2_M11,T1_M11,T2_M11,T3_M11,T4_M11,T5_M11,U1_M11,ZSPAN_M11,X0_M11,X2_M11,X1_M11
2022-10-12 12:00:00,,0826.5,4.99,0.00,26.9,25.2,00.0,35.7,28.7,18.7,0001.9,0014.42,0006.46,0005.42
2022-10-12 12:01:00,,0826.5,5.01,0.00,26.9,25.2,00.0,35.7,28.7,18.7,0002.2,0014.57,0006.45,0005.43
2022-10-12 12:02:00,,0826.5,4.99,0.00,26.9,25.2,00.0,35.7,28.8,18.7,0002.5,0013.43,0006.46,0005.44
2022-10-12 12:03:00,,0826.5,4.99,0.00,26.9,25.2,00.0,35.7,28.7,18.7,0002.8,0013.27,0006.45,0005.43
2022-10-12 12:04:00,,0826.5,5.01,0.00,26.9,25.3,00.0,35.7,28.8,18.8,0002.9,0013.31,0006.44,0005.43
2022-10-12 12:05:00,,0826.6,4.99,0.00,26.9,25.3,00.0,35.7,28.8,18.7,0003.4,0013.73,0006.45,0005.43
2022-10-12 12:06:00,,0826.6,5.00,0.00,26.9,25.3,00.0,35.7,28.8,18.7,0003.3,0014.62,0006.49,0005.43
2022-10-12 12:07:00,,0826.5,5.01,0.00,26.9,25.3,00.0,35.7,28.8,18.7,0003.4,0014.83,0006.49,0005.41
2022-10-12 12:08:00,,0826.6,4.99,0.00,26.9,25.3,00.0,35.7,28.8,18.7,0003.3,0014.36,0006.46,0005.39
2022-10-12 12:09:00,,0826.5,5.01,0.00,26.9,25.3,00.0,35.7,28.8,18.8,0001.4,0014.61,0006.44,0005.39
2022-10-12 12:10:00,,0826.5,4.99,0.00,26.9,25.3,00.0,35.7,28.8,18.8,0001.9,0014.90,0006.47,0005.40
2022-10-12 12:11:00,,0826.5,4.99,0.00,26.9,25.3,00.0,35.7,28.8,18.9,0000.7,0015.79,0006.49,0005.39
2022-10-12 12:12:00,,0826.5,5.01,0.00,26.9,25.3,00.0,35.7,28.8,18.8,0003.2,0015.87,0006.49,0005.39
2022-10-12 12:13:00,,0826.5,4.99,0.00,26.9,25.2,00.0,35.7,28.7,18.7,0003.1,0015.98,0006.49,0005.36
2022-10-12 12:14:00,,0826.6,5.02,0.00,26.9,25.2,00.0,35.7,28.7,18.5,0003.2,0016.00,0006.52,0005.36
2022-10-12 12:15:00,,0826.6,5.00,0.00,26.9,25.2,00.0,35.7,28.8,18.5,0002.9,0016.13,0006.56,0005.36
2022-10-12 12:16:00,,0826.6,5.00,0.00,26.9,25.2,00.0,35.7,28.8,18.5,0002.6,0016.03,0006.63,0005.35
2022-10-12 12:17:00,,0826.6,5.00,0.00,26.9,25.2,00.0,35.7,28.8,18.5,0002.3,0016.24,0006.67,0005.34
2022-10-12 12:18:00,,0826.5,5.01,0.00,26.9,25.2,00.0,35.7,28.8,18.6,0002.3,0015.43,0006.66,0005.36
2022-10-12 12:19:00,,0826.5,5.01,0.00,26.9,25.2,00.0,35.7,28.8,18.6,0002.0,0015.43,0006.67,0005.37
2022-10-12 12:20:00,,0826.5,4.99,0.00,26.9,25.2,00.0,35.7,28.7,18.6,0001.9,0015.45,0006.66,0005.36
2022-10-12 12:21:00,,0826.5,5.01,0.00,26.9,25.2,00.0,35.7,28.8,18.7,0001.5,0015.12,0006.64,0005.34
2022-10-12 12:22:00,,0826.5,4.99,0.00,26.9,25.2,00.0,35.7,28.8,18.6,0001.4,0013.75,0006.59,0005.33
2022-10-12 12:23:00,,0826.5,5.01,0.00,26.9,25.2,00.0,35.7,28.7,18.6,0001.2,0013.00,0006.61,0005.32
2022-10-12 12:24:00,,0826.5,5.00,0.00,26.9,25.2,00.0,35.7,28.7,18.6,0001.2,0013.12,0006.61,0005.34
2022-10-12 12:25:00,,0826.5,4.98,0.00,26.9,25.2,00.0,35.7,28.7,18.6,0001.0,0013.47,0006.59,0005.35
2022-10-12 12:26:00,,0826.5,5.01,0.00,26.9,25.2,00.0,35.7,28.7,18.6,0001.2,0013.93,0006.55,0005.34
2022-10-12 12:27:00,,0826.5,4.99,0.00,26.9,25.2,00.0,35.7,28.7,18.7,0001.3,0014.31,0006.50,0005.35
2022-10-12 12:28:00,,0826.5,5.00,0.00,26.9,25.2,00.0,35.7,28.7,18.7,0001.5,0014.28,0006.39,0005.35
2022-10-12 12:29:00,,0826.5,5.01,0.00,26.9,25.2,00.0,35.7,28.7,18.7,0001.4,0015.60,0006.43,0005.35
2022-10-12 12:30:00,,0826.5,4.99,0.00,26.9,25.2,00.0,35.7,28.7,18.8,0001.5,0016.29,0006.45,0005.35
2022-10-12 12:31:00,,0826.5,5.00,0.00,26.9,25.2,00.0,35.7,28.7,18.8,0002.0,0016.21,0006.46,0005.36
2022-10-12 12:32:00,,0826.5,5.01,0.00,26.9,25.2,00.0,35.6,28.7,18.9,0002.7,0017.00,0006.56,0005.39
2022-10-12 12:33:00,,0826.5,4.99,0.00,26.8,25.2,00.0,35.6,28.7,18.9,0003.1,0017.50,0006.63,0005.42
2022-10-12 12:34:00,,0826.5,5.00,0.00,26.8,25.2,00.0,35.6,28.7,18.9,0002.9,0018.48,0006.64,0005.45
2022-10-12 12:35:00,,0826.5,5.01,0.00,26.8,25.2,00.0,35.6,28.7,18.9,0002.7,0019.17,0006.68,0005.46
2022-10-12 12:36:00,,0826.5,5.00,0.00,26.8,25.2,00.0,35.6,28.7,19.0,0002.8,0019.12,0006.71,0005.49
2022-10-12 12:37:00,,0826.5,5.00,0.00,26.8,25.2,00.0,35.6,28.7,19.0,0002.7,0018.71,0006.75,0005.52
2022-10-12 12:38:00,,0826.5,5.00,0.00,26.8,25.1,00.0,35.6,28.7,19.0,0002.7,0019.05,0006.73,0005.53
2022-10-12 12:39:00,,0826.5,4.99,0.00,26.8,25.1,00.0,35.6,28.7,19.1,0002.6,0019.03,0006.80,0005.57
2022-10-12 12:40:00,,0826.5,5.00,0.00,26.8,25.1,00.0,35.6,28.7,19.1,0002.5,0018.03,0006.81,0005.59
2022-10-12 12:41:00,,0826.5,5.00,0.00,26.8,25.0,00.0,35.6,28.6,19.2,0002.6,0017.83,0006.81,0005.60
2022-10-12 12:42:00,,0826.5,4.99,0.00,26.8,25.0,00.0,35.6,28.6,19.2,0002.6,0017.40,0006.85,0005.63
2022-10-12 12:43:00,,0826.5,5.01,0.00,26.7,24.9,00.0,35.6,28.6,19.2,0002.8,0017.34,0006.87,0005.65
2022-10-12 12:44:00,,0826.5,5.01,0.00,26.7,25.0,00.0,35.6,28.6,19.2,0002.6,0017.18,0006.89,0005.66
2022-10-12 12:45:00,,0826.5,4.99,0.00,26.7,25.0,00.0,35.6,28.6,19.3,0002.6,0016.39,0006.89,0005.69
2022-10-12 12:46:00,,0826.5,5.01,0.00,26.7,25.0,00.0,35.6,28.6,19.2,0002.4,0015.31,0006.92,0005.71
2022-10-12 12:47:00,,0826.5,4.99,0.00,26.7,25.1,00.0,35.6,28.6,19.2,0002.6,0015.33,0006.97,0005.72
2022-10-12 12:48:00,,0826.5,5.01,0.00,26.7,25.1,00.0,35.5,28.6,19.2,0002.6,0015.67,0006.96,0005.73
2022-10-12 12:49:00,,0826.5,4.99,0.00,26.7,25.1,00.0,35.5,28.6,19.2,0002.5,0015.41,0006.99,0005.75
2022-10-12 12:50:00,,0826.5,5.00,0.00,26.7,25.1,00.0,35.5,28.6,19.2,0002.2,0016.14,0007.01,0005.75
2022-10-12 12:51:00,,0826.5,5.00,0.00,26.7,25.0,00.0,35.5,28.6,19.3,0002.2,0016.41,0007.00,0005.77
2022-10-12 12:52:00,,0826.5,5.00,0.00,26.7,24.9,00.0,35.5,28.5,19.3,0002.1,0016.01,0007.08,0005.79
2022-10-12 12:53:00,,0826.5,5.01,0.00,26.7,24.8,00.0,35.5,28.5,19.3,0002.0,0016.16,0007.11,0005.78
2022-10-12 12:54:00,,0826.5,4.99,0.00,26.6,24.8,00.0,35.5,28.5,19.3,0001.4,0015.74,0007.10,0005.78
2022-10-12 12:55:00,,0826.5,5.00,0.00,26.6,24.7,00.0,35.5,28.4,19.4,0001.4,0015.45,0007.08,0005.78
2022-10-12 12:56:00,,0826.5,5.01,0.00,26.6,24.7,00.0,35.5,28.3,19.4,0001.4,0015.94,0007.14,0005.77
2022-10-12 12:57:00,,0826.5,4.98,0.00,26.5,24.6,00.0,35.5,28.3,19.4,0001.8,0016.27,0007.13,0005.76
2022-10-12 12:58:00,,0826.5,4.99,0.00,26.5,24.5,00.0,35.5,28.3,19.4,0001.8,0016.06,0007.05,0005.76
2022-10-12 12:59:00,,0826.5,5.01,0.00,26.5,24.4,00.0,35.4,28.2,19.5,0001.5,0015.63,0007.08,0005.76
